Time,TemperatureF,DewpointF,PressureIn,WindDirection,WindDirectionDegrees,WindSpeedMPH,WindSpeedGustMPH,Humidity,HourlyPrecipIn,Conditions,Clouds,dailyrainin,SoftwareType,DateUTC
2013-01-24 00:09:00,32.0,31.8,29.96,West,270,0.0,-999.0,99,-99.99,,,0.00,Acu-Link.com,2013-01-24 06:09:00,
2013-01-24 00:24:00,31.8,31.6,29.97,West,270,0.0,-999.0,99,-99.99,,,0.00,Acu-Link.com,2013-01-24 06:24:00,
2013-01-24 00:39:00,32.4,32.2,29.98,West,270,0.0,-999.0,99,-99.99,,,0.00,Acu-Link.com,2013-01-24 06:39:00,
2013-01-24 00:54:00,32.2,32.0,29.98,West,270,0.0,-999.0,99,-99.99,,,0.00,Acu-Link.com,2013-01-24 06:54:00,
2013-01-24 01:10:00,32.9,32.7,29.99,West,270,0.0,-999.0,99,-99.99,,,0.00,Acu-Link.com,2013-01-24 07:10:00,
2013-01-24 01:25:00,33.3,32.3,29.99,West,270,0.0,-999.0,96,-99.99,,,0.00,Acu-Link.com,2013-01-24 07:25:00,
2013-01-24 01:40:00,33.1,31.3,29.99,WSW,247,0.0,-999.0,93,-99.99,,,0.00,Acu-Link.com,2013-01-24 07:40:00,
2013-01-24 01:55:00,33.3,30.4,30.00,West,270,3.7,-999.0,89,-99.99,,,0.00,Acu-Link.com,2013-01-24 07:55:00,
2013-01-24 02:10:00,32.9,29.5,30.01,WNW,292,5.3,-999.0,87,-99.99,,,0.00,Acu-Link.com,2013-01-24 08:10:00,
2013-01-24 02:25:00,32.4,28.7,30.02,West,270,4.7,-999.0,86,-99.99,,,0.00,Acu-Link.com,2013-01-24 08:25:00,
2013-01-24 02:40:00,32.0,28.3,30.04,West,270,5.3,-999.0,86,-99.99,,,0.00,Acu-Link.com,2013-01-24 08:40:00,
2013-01-24 02:55:00,31.3,28.2,30.04,West,270,3.7,-999.0,88,-99.99,,,0.00,Acu-Link.com,2013-01-24 08:55:00,
2013-01-24 03:16:00,30.9,28.0,30.04,WNW,292,4.7,-999.0,89,-99.99,,,0.00,Acu-Link.com,2013-01-24 09:16:00,
2013-01-24 03:31:00,30.0,27.4,30.06,North,0,4.7,-999.0,90,-99.99,,,0.00,Acu-Link.com,2013-01-24 09:31:00,
2013-01-24 03:46:00,29.3,27.0,30.06,WNW,292,3.7,-999.0,91,-99.99,,,0.00,Acu-Link.com,2013-01-24 09:46:00,
2013-01-24 04:01:00,28.4,25.3,30.08,NE,45,3.7,-999.0,88,-99.99,,,0.00,Acu-Link.com,2013-01-24 10:01:00,
2013-01-24 04:17:00,27.9,25.1,30.09,NE,45,2.7,-999.0,89,-99.99,,,0.00,Acu-Link.com,2013-01-24 10:17:00,
2013-01-24 04:32:00,27.5,24.7,30.08,NNW,337,4.7,-999.0,89,-99.99,,,0.00,Acu-Link.com,2013-01-24 10:32:00,
2013-01-24 04:47:00,26.8,24.3,30.09,WNW,292,2.2,-999.0,90,-99.99,,,0.00,Acu-Link.com,2013-01-24 10:47:00,
2013-01-24 05:02:00,26.2,23.9,30.09,NNW,337,4.7,-999.0,91,-99.99,,,0.00,Acu-Link.com,2013-01-24 11:02:00,
2013-01-24 05:17:00,26.6,23.5,30.11,NNW,337,7.3,-999.0,88,-99.99,,,0.00,Acu-Link.com,2013-01-24 11:17:00,
2013-01-24 05:32:00,26.2,23.1,30.13,ENE,67,6.8,-999.0,88,-99.99,,,0.00,Acu-Link.com,2013-01-24 11:32:00,
2013-01-24 05:47:00,25.7,22.4,30.14,WNW,292,2.7,-999.0,87,-99.99,,,0.00,Acu-Link.com,2013-01-24 11:47:00,
2013-01-24 06:03:00,25.2,21.9,30.16,NE,45,0.0,-999.0,87,-99.99,,,0.00,Acu-Link.com,2013-01-24 12:03:00,
2013-01-24 06:18:00,24.3,21.0,30.17,NE,45,3.2,-999.0,87,-99.99,,,0.00,Acu-Link.com,2013-01-24 12:18:00,
2013-01-24 06:33:00,23.5,18.5,30.19,NW,315,0.0,-999.0,81,-99.99,,,0.00,Acu-Link.com,2013-01-24 12:33:00,
2013-01-24 06:48:00,23.2,16.8,30.19,NE,45,4.7,-999.0,76,-99.99,,,0.00,Acu-Link.com,2013-01-24 12:48:00,
2013-01-24 07:03:00,22.8,16.7,30.20,NE,45,2.7,-999.0,77,-99.99,,,0.00,Acu-Link.com,2013-01-24 13:03:00,
2013-01-24 07:18:00,23.7,17.9,30.20,NW,315,5.8,-999.0,78,-99.99,,,0.00,Acu-Link.com,2013-01-24 13:18:00,
2013-01-24 07:34:00,24.6,18.7,30.21,NW,315,3.7,-999.0,78,-99.99,,,0.00,Acu-Link.com,2013-01-24 13:34:00,
2013-01-24 07:49:00,24.1,18.8,30.22,East,90,3.7,-999.0,80,-99.99,,,0.00,Acu-Link.com,2013-01-24 13:49:00,
2013-01-24 08:04:00,25.0,19.4,30.21,NNE,22,7.8,-999.0,79,-99.99,,,0.00,Acu-Link.com,2013-01-24 14:04:00,
2013-01-24 08:19:00,24.8,19.2,30.21,NNW,337,3.2,-999.0,79,-99.99,,,0.00,Acu-Link.com,2013-01-24 14:19:00,
2013-01-24 08:34:00,25.3,19.7,30.23,ENE,67,7.8,-999.0,79,-99.99,,,0.00,Acu-Link.com,2013-01-24 14:34:00,
2013-01-24 08:49:00,25.9,20.3,30.24,ENE,67,5.3,-999.0,79,-99.99,,,0.00,Acu-Link.com,2013-01-24 14:49:00,
2013-01-24 09:04:00,26.8,20.6,30.23,East,90,8.3,-999.0,77,-99.99,,,0.00,Acu-Link.com,2013-01-24 15:04:00,
2013-01-24 09:19:00,27.0,20.8,30.23,ENE,67,5.8,-999.0,77,-99.99,,,0.00,Acu-Link.com,2013-01-24 15:19:00,
2013-01-24 09:34:00,27.1,20.6,30.26,East,90,5.3,-999.0,76,-99.99,,,0.00,Acu-Link.com,2013-01-24 15:34:00,
2013-01-24 09:50:00,27.5,20.6,30.27,NE,45,6.3,-999.0,75,-99.99,,,0.00,Acu-Link.com,2013-01-24 15:50:00,
2013-01-24 10:05:00,29.1,21.9,30.26,ENE,67,4.7,-999.0,74,-99.99,,,0.00,Acu-Link.com,2013-01-24 16:05:00,
2013-01-24 10:20:00,29.1,21.5,30.27,NE,45,3.2,-999.0,73,-99.99,,,0.00,Acu-Link.com,2013-01-24 16:20:00,
2013-01-24 10:35:00,30.6,22.0,30.27,ENE,67,5.3,-999.0,70,-99.99,,,0.00,Acu-Link.com,2013-01-24 16:35:00,
2013-01-24 10:50:00,30.7,21.8,30.27,NE,45,5.3,-999.0,69,-99.99,,,0.00,Acu-Link.com,2013-01-24 16:50:00,
2013-01-24 11:05:00,31.8,22.5,30.27,NE,45,4.2,-999.0,68,-99.99,,,0.00,Acu-Link.com,2013-01-24 17:05:00,
2013-01-24 11:20:00,31.8,21.8,30.26,East,90,2.7,-999.0,66,-99.99,,,0.00,Acu-Link.com,2013-01-24 17:20:00,
2013-01-24 11:35:00,33.1,21.5,30.25,East,90,6.3,-999.0,62,-99.99,,,0.00,Acu-Link.com,2013-01-24 17:35:00,
2013-01-24 11:50:00,32.5,21.3,30.24,ESE,112,0.0,-999.0,63,-99.99,,,0.00,Acu-Link.com,2013-01-24 17:50:00,
2013-01-24 12:06:00,33.1,21.1,30.24,East,90,3.2,-999.0,61,-99.99,,,0.00,Acu-Link.com,2013-01-24 18:06:00,
2013-01-24 12:21:00,33.4,21.4,30.22,ESE,112,7.8,-999.0,61,-99.99,,,0.00,Acu-Link.com,2013-01-24 18:21:00,
2013-01-24 12:36:00,33.4,22.2,30.21,East,90,6.3,-999.0,63,-99.99,,,0.00,Acu-Link.com,2013-01-24 18:36:00,
2013-01-24 12:51:00,34.7,21.5,30.21,ESE,112,6.8,-999.0,58,-99.99,,,0.00,Acu-Link.com,2013-01-24 18:51:00,
2013-01-24 13:06:00,35.1,20.6,30.20,NE,45,8.9,-999.0,55,-99.99,,,0.00,Acu-Link.com,2013-01-24 19:06:00,
2013-01-24 13:21:00,34.9,19.5,30.19,ENE,67,0.0,-999.0,53,-99.99,,,0.00,Acu-Link.com,2013-01-24 19:21:00,
2013-01-24 13:36:00,35.6,20.2,30.18,NE,45,0.0,-999.0,53,-99.99,,,0.00,Acu-Link.com,2013-01-24 19:36:00,
2013-01-24 13:51:00,35.2,20.2,30.18,ESE,112,10.4,-999.0,54,-99.99,,,0.00,Acu-Link.com,2013-01-24 19:51:00,
2013-01-24 14:06:00,34.9,19.5,30.18,ESE,112,7.8,-999.0,53,-99.99,,,0.00,Acu-Link.com,2013-01-24 20:06:00,
2013-01-24 14:22:00,34.2,18.4,30.18,ENE,67,5.3,-999.0,52,-99.99,,,0.00,Acu-Link.com,2013-01-24 20:22:00,
2013-01-24 14:37:00,34.3,19.4,30.19,East,90,5.3,-999.0,54,-99.99,,,0.00,Acu-Link.com,2013-01-24 20:37:00,
2013-01-24 14:52:00,33.1,18.7,30.18,ESE,112,8.3,-999.0,55,-99.99,,,0.00,Acu-Link.com,2013-01-24 20:52:00,
2013-01-24 15:07:00,33.1,20.4,30.18,ESE,112,8.9,-999.0,59,-99.99,,,0.00,Acu-Link.com,2013-01-24 21:07:00,
2013-01-24 15:22:00,32.4,18.5,30.18,ESE,112,4.2,-999.0,56,-99.99,,,0.00,Acu-Link.com,2013-01-24 21:22:00,
2013-01-24 15:37:00,32.5,19.0,30.17,ESE,112,7.3,-999.0,57,-99.99,,,0.00,Acu-Link.com,2013-01-24 21:37:00,
2013-01-24 15:52:00,32.2,18.7,30.16,ESE,112,6.3,-999.0,57,-99.99,,,0.00,Acu-Link.com,2013-01-24 21:52:00,
2013-01-24 16:07:00,31.5,17.6,30.16,ESE,112,9.4,-999.0,56,-99.99,,,0.00,Acu-Link.com,2013-01-24 22:07:00,
2013-01-24 16:22:00,31.3,17.4,30.16,ESE,112,4.7,-999.0,56,-99.99,,,0.00,Acu-Link.com,2013-01-24 22:22:00,
2013-01-24 16:38:00,31.3,16.6,30.17,ESE,112,0.0,-999.0,54,-99.99,,,0.00,Acu-Link.com,2013-01-24 22:38:00,
2013-01-24 16:53:00,30.7,16.0,30.15,ESE,112,6.3,-999.0,54,-99.99,,,0.00,Acu-Link.com,2013-01-24 22:53:00,
2013-01-24 17:08:00,29.8,16.0,30.15,East,90,5.8,-999.0,56,-99.99,,,0.00,Acu-Link.com,2013-01-24 23:08:00,
2013-01-24 17:23:00,29.5,16.6,30.14,ESE,112,0.0,-999.0,58,-99.99,,,0.00,Acu-Link.com,2013-01-24 23:23:00,
2013-01-24 17:38:00,28.8,16.7,30.16,ESE,112,2.7,-999.0,60,-99.99,,,0.00,Acu-Link.com,2013-01-24 23:38:00,
2013-01-24 17:53:00,28.8,17.1,30.16,ESE,112,0.0,-999.0,61,-99.99,,,0.00,Acu-Link.com,2013-01-24 23:53:00,
2013-01-24 18:08:00,28.8,17.8,30.16,ESE,112,0.0,-999.0,63,-99.99,,,0.00,Acu-Link.com,2013-01-25 00:08:00,
2013-01-24 18:23:00,28.6,17.6,30.17,ESE,112,0.0,-999.0,63,-99.99,,,0.00,Acu-Link.com,2013-01-25 00:23:00,
2013-01-24 18:38:00,29.1,17.7,30.16,SE,135,5.3,-999.0,62,-99.99,,,0.00,Acu-Link.com,2013-01-25 00:38:00,
2013-01-24 18:54:00,29.1,17.0,30.15,ESE,112,6.8,-999.0,60,-99.99,,,0.00,Acu-Link.com,2013-01-25 00:54:00,
2013-01-24 19:09:00,28.6,17.3,30.14,ESE,112,4.7,-999.0,62,-99.99,,,0.00,Acu-Link.com,2013-01-25 01:09:00,
2013-01-24 19:24:00,28.2,17.2,30.12,East,90,5.3,-999.0,63,-99.99,,,0.00,Acu-Link.com,2013-01-25 01:24:00,
2013-01-24 19:39:00,28.2,16.5,30.13,ESE,112,5.3,-999.0,61,-99.99,,,0.00,Acu-Link.com,2013-01-25 01:39:00,
2013-01-24 19:54:00,28.2,15.3,30.13,ESE,112,5.3,-999.0,58,-99.99,,,0.00,Acu-Link.com,2013-01-25 01:54:00,
2013-01-24 20:09:00,27.9,14.7,30.12,East,90,4.2,-999.0,57,-99.99,,,0.00,Acu-Link.com,2013-01-25 02:09:00,
2013-01-24 20:24:00,27.5,13.9,30.10,ESE,112,6.8,-999.0,56,-99.99,,,0.00,Acu-Link.com,2013-01-25 02:24:00,
2013-01-24 20:39:00,28.2,14.5,30.10,ESE,112,0.0,-999.0,56,-99.99,,,0.00,Acu-Link.com,2013-01-25 02:39:00,
2013-01-24 20:54:00,28.4,13.9,30.10,ESE,112,0.0,-999.0,54,-99.99,,,0.00,Acu-Link.com,2013-01-25 02:54:00,
2013-01-24 21:10:00,28.0,13.9,30.09,ESE,112,0.0,-999.0,55,-99.99,,,0.00,Acu-Link.com,2013-01-25 03:10:00,
2013-01-24 21:25:00,28.6,14.1,30.09,ESE,112,0.0,-999.0,54,-99.99,,,0.00,Acu-Link.com,2013-01-25 03:25:00,
2013-01-24 21:40:00,28.8,14.7,30.09,ESE,112,5.8,-999.0,55,-99.99,,,0.00,Acu-Link.com,2013-01-25 03:40:00,
2013-01-24 21:55:00,28.8,14.3,30.08,ESE,112,7.8,-999.0,54,-99.99,,,0.00,Acu-Link.com,2013-01-25 03:55:00,
2013-01-24 22:10:00,28.8,15.1,30.08,ESE,112,9.4,-999.0,56,-99.99,,,0.00,Acu-Link.com,2013-01-25 04:10:00,
2013-01-24 22:25:00,28.9,15.2,30.07,ESE,112,7.3,-999.0,56,-99.99,,,0.00,Acu-Link.com,2013-01-25 04:25:00,
2013-01-24 22:40:00,28.9,14.4,30.07,SE,135,7.3,-999.0,54,-99.99,,,0.00,Acu-Link.com,2013-01-25 04:40:00,
2013-01-24 22:55:00,29.1,14.6,30.05,SE,135,8.3,-999.0,54,-99.99,,,0.00,Acu-Link.com,2013-01-25 04:55:00,
2013-01-24 23:10:00,29.1,15.0,30.06,ESE,112,8.3,-999.0,55,-99.99,,,0.00,Acu-Link.com,2013-01-25 05:10:00,
2013-01-24 23:26:00,29.3,16.0,30.05,SE,135,6.3,-999.0,57,-99.99,,,0.00,Acu-Link.com,2013-01-25 05:26:00,
2013-01-24 23:41:00,29.1,15.0,30.04,SE,135,6.8,-999.0,55,-99.99,,,0.00,Acu-Link.com,2013-01-25 05:41:00,
2013-01-24 23:56:00,29.1,15.4,30.03,SE,135,6.3,-999.0,56,-99.99,,,0.00,Acu-Link.com,2013-01-25 05:56:00,